[[{"header":{"parameterUnit":"m.s-1","parameterCategory":1,"la1":30.2992,"la2":30.254,"lo1":-89.0895,"lo2":-89.0443,"dy":0.0025,"dx":0.0025,"nx":19,"ny":19,"refTime":"2026-04-04T03:00:00:Z","depth":0,"parameterNumber":2,"parameterNumberName":"U-component_of_WINDS"},"data":[0,0,0,-1.2417,-1.2417,-1.2414,-1.2414,-1.2414,-1.2414,0,0,0,0,0,0,0,0,0,0,0,-1.242,-1.242,-1.2416,-1.2417,-1.2414,-1.2414,-1.2414,-1.2414,0,0,0,0,0,0,0,0,0,0,0,-1.242,-1.242,-1.242,-1.2417,-1.2414,-1.2414,-1.2414,-1.2415,0,0,0,0,0,0,0,0,0,0,-1.2417,-1.2422,-1.242,-1.242,-1.2417,-1.2414,-1.2414,-1.2415,-1.2415,-1.2417,0,-1.242,0,-1.2417,-1.2415,-1.2415,0,0,0,-1.2415,-1.2422,-1.2419,-1.242,-1.2417,-1.2414,-1.2415,-1.2415,-1.2415,-1.2417,-1.242,-1.242,-1.2417,-1.2415,-1.2415,-1.2433,-1.2433,0,0,-1.2415,-1.242,-1.2419,-1.2419,-1.242,-1.2415,-1.2415,-1.2415,-1.2418,-1.242,-1.242,-1.2417,-1.2415,-1.2415,-1.2433,-1.2433,0,0,0,-1.2416,-1.2421,-1.2418,-1.2419,-1.2419,-1.2415,-1.2415,-1.2418,-1.2417,-1.2419,-1.2417,-1.2415,-1.2415,-1.2433,-1.2433,-1.2446,0,0,0,-1.2416,-1.2422,-1.2418,-1.2421,-1.2419,-1.2418,-1.2418,-1.2417,-1.2416,-1.2417,-1.2415,-1.2415,-1.2433,-1.2433,-1.2446,-1.2452,0,0,0,-1.2419,-1.2422,-1.2422,-1.2422,-1.2421,-1.2418,-1.2417,-1.2416,-1.2415,-1.2415,-1.2415,-1.2432,-1.2433,-1.2445,-1.245,-1.2457,0,0,0,-1.2423,-1.2435,-1.2423,-1.2435,-1.2421,-1.2427,-1.2417,-1.2421,-1.2422,-1.2415,-1.2433,-1.2433,-1.2445,-1.245,-1.2457,-1.2463,-1.2467,0,0,-1.2441,-1.2437,-1.2444,-1.2433,-1.2442,-1.2427,-1.2438,-1.2434,-1.2429,-1.2432,-1.2432,-1.2446,-1.245,-1.2457,-1.2487,-1.249,0,0,0,-1.2451,-1.2456,-1.2457,-1.2458,-1.2456,-1.2453,-1.2447,-1.2445,-1.2448,-1.2432,-1.2451,-1.2453,-1.2457,-1.246,-1.2462,-1.2465,-1.2435,-1.2435,-1.2435,-1.2483,-1.2476,-1.2486,-1.2478,-1.248,-1.2473,-1.2473,-1.247,-1.2463,-1.2467,-1.2468,-1.2487,-1.2491,-1.2492,-1.2495,-1.2471,-1.2472,-1.2472,-1.2472,-1.2508,-1.2512,-1.2502,-1.2508,-1.25,-1.2505,-1.2498,-1.2493,-1.2496,-1.2486,-1.2489,-1.2478,-1.2496,-1.2498,-1.2473,-1.2472,-1.2472,-1.2472,-1.2472,-1.2527,-1.2528,-1.2526,-1.2527,-1.2529,-1.2521,-1.2523,-1.2517,-1.251,-1.2513,-1.2512,-1.2512,-1.251,-1.2513,-1.2513,-1.2513,-1.2513,-1.2513,-1.2513,-1.2548,-1.2545,-1.2548,-1.2546,-1.2546,-1.2545,-1.2538,-1.2537,-1.2534,-1.2529,-1.2529,-1.252,-1.2499,-1.2494,-1.2514,-1.2514,-1.2514,-1.2514,-1.2514,-1.2573,-1.2566,-1.2572,-1.2571,-1.2568,-1.2569,-1.256,-1.2559,-1.2558,-1.2559,-1.255,-1.2536,-1.2532,-1.253,-1.2525,-1.2552,-1.2552,-1.2552,-1.2552,-1.2589,-1.2586,-1.2589,-1.2589,-1.2588,-1.2581,-1.2586,-1.2581,-1.2574,-1.2572,-1.2568,-1.2561,-1.2559,-1.2556,-1.2553,-1.2548,-1.2581,-1.2581,-1.2581,-1.2603,-1.26,-1.2606,-1.26,-1.2596,-1.2594,-1.2598,-1.2598,-1.2589,-1.2582,-1.2571,-1.2569,-1.2559,-1.2556,-1.2548,-1.2544,-1.2535,0,0]},{"header":{"parameterUnit":"m.s-1","parameterCategory":1,"la1":30.2992,"la2":30.254,"lo1":-89.0895,"lo2":-89.0443,"dy":0.0025,"dx":0.0025,"nx":19,"ny":19,"refTime":"2026-04-04T03:00:00:Z","depth":0,"parameterNumber":3,"parameterNumberName":"V-component_of_WINDS"},"data":[0,0,0,2.473,2.4731,2.4814,2.4814,2.4914,2.4915,0,0,0,0,0,0,0,0,0,0,0,2.4702,2.4703,2.4729,2.4731,2.4814,2.4814,2.4914,2.4915,0,0,0,0,0,0,0,0,0,0,0,2.4702,2.4703,2.4704,2.4732,2.4814,2.4814,2.4913,2.4853,0,0,0,0,0,0,0,0,0,0,2.4774,2.4746,2.4703,2.4704,2.4732,2.4814,2.4814,2.485,2.4857,2.4874,0,2.489,0,2.4904,2.4921,2.4921,0,0,0,2.4733,2.4741,2.4766,2.4704,2.4733,2.4814,2.4777,2.4854,2.4861,2.4883,2.4891,2.4895,2.4905,2.4922,2.4922,2.5019,2.5019,0,0,2.4729,2.4715,2.4761,2.477,2.4758,2.4774,2.478,2.4859,2.4866,2.4891,2.4897,2.4907,2.4922,2.4923,2.5019,2.5019,0,0,0,2.4714,2.4712,2.4735,2.4766,2.4781,2.4777,2.4783,2.4863,2.4871,2.4898,2.4908,2.4923,2.4924,2.5018,2.5019,2.5025,0,0,0,2.4712,2.4704,2.4733,2.4726,2.478,2.4823,2.4785,2.4866,2.4875,2.4908,2.4923,2.4925,2.5018,2.5018,2.5024,2.5031,0,0,0,2.4698,2.4702,2.4713,2.4725,2.476,2.4822,2.4836,2.4868,2.4881,2.4921,2.4925,2.5017,2.5018,2.5024,2.5029,2.5054,0,0,0,2.4679,2.4717,2.4713,2.476,2.4759,2.4826,2.4835,2.4885,2.492,2.4923,2.5018,2.5019,2.5023,2.5029,2.5053,2.5073,2.5079,0,0,2.472,2.4722,2.475,2.4749,2.4813,2.4814,2.4879,2.4923,2.4938,2.4991,2.4993,2.5025,2.5029,2.5053,2.512,2.5125,0,0,0,2.4758,2.4779,2.4799,2.4832,2.4867,2.4898,2.4933,2.495,2.4995,2.4963,2.504,2.5043,2.5058,2.5068,2.5072,2.5086,2.5022,2.5022,2.5022,2.4798,2.4816,2.4864,2.4893,2.4925,2.4961,2.4989,2.5017,2.5025,2.5043,2.5059,2.5097,2.5109,2.5112,2.5127,2.507,2.507,2.507,2.507,2.486,2.4892,2.4903,2.4954,2.4972,2.5015,2.5051,2.5055,2.5097,2.5086,2.51,2.5088,2.5118,2.5131,2.5071,2.5071,2.5071,2.5071,2.507,2.4889,2.4908,2.4928,2.4978,2.5015,2.5042,2.5082,2.5097,2.5111,2.5125,2.5144,2.5144,2.5147,2.5133,2.5133,2.5133,2.5133,2.5133,2.5133,2.4912,2.4934,2.4967,2.5008,2.5031,2.5065,2.5102,2.5125,2.5155,2.5163,2.5163,2.517,2.5117,2.5104,2.5136,2.5135,2.5135,2.5135,2.5135,2.4971,2.496,2.5011,2.5035,2.5084,2.512,2.5138,2.5185,2.5207,2.5226,2.523,2.5188,2.5191,2.5187,2.5177,2.5225,2.5225,2.5225,2.5225,2.4996,2.4999,2.5055,2.5092,2.513,2.5152,2.5209,2.5238,2.5266,2.528,2.5275,2.5262,2.5258,2.5263,2.5258,2.5249,2.5314,2.5314,2.5315,2.5034,2.5041,2.5087,2.5115,2.5155,2.5189,2.5243,2.5285,2.5314,2.5319,2.5292,2.5289,2.5268,2.526,2.5265,2.5256,2.5239,0,0]}]]